This demonstration page uses our WeatherBlox Daily Observations layout. Learn more.

Left ArrowRight Arrow

Hourly Observations for December 24, 2016

Temp ( °F °C ) Dew Point ( °F °C ) Humidity (%) Winds ( mph kmh ) Pressure ( in mb ) Visibility ( mi km ) Precip ( " mm )
12:53 am 00:53 Cloudy 22 -5.6 18 -7.8 85 85 E 24 39 29.86 1011 10 16 0.00 0.00
1:53 am 01:53 Clear 20 -6.7 17 -8.3 89 89 E 25 41 29.87 1012 10 16 0.00 0.00
2:53 am 02:53 Mostly Clear 20 -6.7 17 -8.3 89 89 E 25 41 29.88 1012 10 16 0.00 0.00
3:44 am 03:44 Partly Cloudy 19 -7 18 -8 93 93 E 26 43 29.94 1014 10 16 0.00 0.00
3:53 am 03:53 Mostly Cloudy 20 -6.7 17 -8.3 89 89 E 23 37 29.88 1012 10 16 0.00 0.00
4:19 am 04:19 Cloudy 20 -6.7 17 -8.3 89 89 E 26 43 29.97 1015 10 16 0.00 0.00
4:53 am 04:53 Cloudy 20 -6.7 17 -8.3 89 89 undefined N/A 29.90 1012 10 16 0.00 0.00
5:53 am 05:53 Cloudy 20 -6.7 17 -8.3 89 89 E 21 33 29.91 1013 10 16 0.00 0.00
6:53 am 06:53 Cloudy 20 -6.7 17 -8.3 89 89 E 21 33 29.91 1013 10 16 0.00 0.00
7:53 am 07:53 Cloudy 19 -7.2 16 -8.9 88 88 E 26 43 29.91 1013 10 16 0.00 0.00
8:53 am 08:53 Cloudy 20 -6.7 17 -8.3 89 89 E 21 33 29.94 1014 10 16 0.00 0.00
9:53 am 09:53 Cloudy 21 -6.1 18 -7.8 88 88 E 26 43 29.96 1015 10 16 0.00 0.00
10:53 am 10:53 Cloudy 22 -5.6 19 -7.2 89 89 E 26 43 29.96 1015 10 16 0.00 0.00
11:33 am 11:33 Cloudy 22 -5.6 18 -7.8 85 85 E 25 41 29.97 1015 10 16 0.00 0.00
11:53 am 11:53 Cloudy 21 -6.1 18 -7.8 88 88 E 24 39 29.96 1014 10 16 0.00 0.00
12:18 pm 12:18 Cloudy 21 -6 18 -8 86 86 E 23 37 29.97 1015 10 16 0.00 0.00
12:53 pm 12:53 Windy with Snow Likely 22 -5.6 18 -7.8 85 85 E 23 37 29.94 1014 2 3 0.00 0.03
1:01 pm 13:01 Windy with Snow Likely 21 -6.1 18 -7.8 88 88 E 24 39 29.97 1015 1 2 0.00 0.03
1:33 pm 13:33 Windy with Snow Likely 22 -5.6 18 -7.8 85 85 E 23 37 29.97 1015 2 3 0.01 0.25
1:41 pm 13:41 Windy with Snow Likely 21 -6.1 18 -7.8 88 88 E 20 31 29.97 1015 6 10 0.01 0.25
1:53 pm 13:53 Windy with Snow Likely 21 -6.1 18 -7.8 88 88 E 21 33 29.94 1014 3 5 0.01 0.25
2:41 pm 14:41 Windy with Snow Likely 21 -6.1 17 -8.3 85 85 E 22 35 29.97 1015 2 3 0.00 0.03
2:53 pm 14:53 Windy with Snow Likely 21 -6.1 18 -7.8 88 88 E 20 31 29.95 1014 2 3 0.00 0.03
2:57 pm 14:57 Windy with Snow Likely 21 -6.1 18 -7.8 88 88 E 23 37 29.97 1015 3 5 0.00 0.03
3:06 pm 15:06 Windy with Snow Likely 19 -7 18 -8 93 93 E 22 35 30.00 1016 3 4 0.00 0.00
3:15 pm 15:15 Windy with Snow Likely 20 -6.7 17 -8.3 89 89 E 25 41 30.00 1016 5 8 0.00 0.03
3:24 pm 15:24 Cloudy 19 -7 18 -8 93 93 E 21 33 30.00 1016 7 11 0.00 0.00
3:53 pm 15:53 Cloudy 20 -6.7 17 -8.3 89 89 E 26 43 29.95 1014 10 16 0.00 0.03
4:53 pm 16:53 Cloudy 20 -6.7 17 -8.3 89 89 E 26 43 29.96 1015 10 16 0.00 0.00
5:53 pm 17:53 Cloudy 20 -6.7 17 -8.3 89 89 E 16 26 29.96 1015 10 16 0.00 0.00
6:10 pm 18:10 Cloudy 19 -7 16 -9 86 86 E 23 37 30.03 1017 10 16 0.00 0.00
6:53 pm 18:53 Windy with Snow Likely 19 -7.2 16 -8.9 88 88 E 22 35 29.98 1015 6 10 0.00 0.03
7:11 pm 19:11 Windy with Snow Likely 18 -7.8 15 -9.4 88 88 E 25 41 30.03 1017 3 4 0.00 0.03
7:18 pm 19:18 Windy with Snow Likely 18 -8 16 -9 93 93 E 25 41 30.06 1018 2 3 0.00 0.00
7:31 pm 19:31 Windy with Snow Likely 18 -7.8 15 -9.4 88 88 E 22 35 30.06 1018 1 2 0.00 0.03
7:53 pm 19:53 Mostly Cloudy with Light Snow 17 -8.3 15 -9.4 92 92 E 21 33 29.99 1016 1 2 0.01 0.25
8:18 pm 20:18 Windy with Snow Likely 18 -8 14 -10 86 86 E 20 31 30.06 1018 1 2 0.00 0.00
8:28 pm 20:28 Windy with Snow Likely 17 -8.3 14 -10 88 88 E 21 33 30.06 1018 2 3 0.01 0.25
8:36 pm 20:36 Windy with Snow Likely 18 -8 12 -11 79 79 E 20 31 30.06 1018 3 4 0.00 0.00
8:53 pm 20:53 Windy with Snow Likely 15 -9.4 12 -11.1 88 88 E 22 35 30.00 1016 2 3 0.01 0.25
9:03 pm 21:03 Windy with Snow Likely 16 -9 12 -11 86 86 E 24 39 30.09 1019 2 3 0.00 0.00
9:21 pm 21:21 Windy with Snow Likely 15 -9.4 11 -11.7 84 84 E 22 35 30.09 1019 3 5 0.00 0.03
9:44 pm 21:44 Windy with Snow Likely 14 -10 10 -12 85 85 E 24 39 30.09 1019 4 6 0.00 0.00
9:53 pm 21:53 Windy with Snow Likely 14 -10 10 -12.2 84 84 E 22 35 30.01 1016 5 8 0.00 0.03
10:21 pm 22:21 Windy with Snow Likely 13 -10.6 9 -12.8 84 84 E 23 37 30.09 1019 8 13 0.00 0.03
10:53 pm 22:53 Windy with Snow Likely 12 -11.1 8 -13.3 84 84 E 21 33 30.02 1017 5 8 0.00 0.03
11:53 pm 23:53 Cloudy with Light Snow 11 -11.7 6 -14.4 81 81 E 18 30 30.05 1018 4 6 0.00 0.03

Powered by AerisWeather